Terminal Aerodrome Forecast
Issued by NWS Pocatello, ID

Home | Current Version | Previous Version | Text Only | Print | Product List | Glossary On
Versions: 1 2 3 4 5 6 7 8 9 10 11 12 13 14 15 16 17 18 19 20 21 22
000
FTUS45 KPIH 282320
TAFBYI
TAF
KBYI 282320Z 2900/2924 28012G22KT P6SM VCSH OVC040
     FM290200 28011KT P6SM SCT040 OVC070
     FM290600 24006KT P6SM SCT040 BKN070=

USA.gov is the U.S. government's official web portal to all federal, state and local government web resources and services.